Location: Ełk
(53.8214°N, 22.3622°E)
Time: 18:47:41
(UTC+01:00)

ISS - Pass Details

Date: 27 January 2019
Orbit: 403 x 411 km, 51.6° (Epoch: 20 February)

Event Time Altitude Azimuth Distance (km) Brightness Sun altitude
Rises 16:47:34 0° 209° (SSW) 2,325 0.9 -6.9°
Reaches altitude 10° 16:50:09 10° 187° (S) 1,470 -0.6 -7.3°
Maximum altitude 16:52:20 17° 146° (SE) 1,137 -1.7 -7.6°
Drops below altitude 10° 16:54:32 10° 104° (ESE) 1,479 -1.5 -7.9°
Enters shadow 16:55:02 - 98° (E) 1,628 -1.3 -7.9°
